Weather History for PHNG - December, 2012

Change the Weather History Date:

Thursday, December 6, 2012

  Actual Average Record
Temperature  
Mean Temperature 76 °F -  
Max Temperature 80 °F 76 °F 81 °F (2003)
Min Temperature 72 °F 68 °F 63 °F (2010)
Cooling Degree Days 11    
Growing Degree Days 26 (Base 50)    
Moisture  
Dew Point 70 °F    
Average Humidity 82    
Maximum Humidity 95    
Minimum Humidity 65    
Precipitation  
Precipitation 0.00 in - - ()
Sea Level Pressure  
Sea Level Pressure 29.97 in    
Wind  
Wind Speed 2 mph (SE)    
Max Wind Speed 13 mph    
Max Gust Speed 20 mph    
Visibility 10 miles    
Events      
Averages and records for this station are not official NWS values.
T = Trace of Precipitation, MM = Missing Value Source: NWS Daily Summary

Daily Weather History Graph

Daily Weather History Graph

Search for Another Location

Airport or City:

Trip Planner

Search our weather history database for the weather conditions in past years. The results will help you decide how hot, cold, wet, or windy it might be!

Date:

Astronomy

Dec. 06, 2012 Rise Set
Actual Time 6:56 AM HST 5:48 PM HST
Civil Twilight 6:31 AM HST 6:12 PM HST
Nautical Twilight 6:04 AM HST 6:40 PM HST
Astronomical Twilight 5:37 AM HST 7:07 PM HST
Moon 12:11 AM HST (12/6) 12:37 PM HST (12/6)
Length of Visible Light 11h 40m
Length of Day
10h 52m
Waning Gibbous, 47% of the Moon is Illuminated
Dec 6
Waning Gibbous
Dec 12
New
Dec 19
First Quarter
Dec 28
Full
Jan 4
Last Quarter

Hourly Weather History & Observations

Time (HST) Temp. Heat Index Dew Point Humidity Pressure Visibility Wind Dir Wind Speed Gust Speed Precip Events Conditions
12:57 AM 75.2 °F - 71.1 °F 87% 30.00 in 10.0 mi Calm Calm - N/A   Mostly Cloudy
1:09 AM - - - N/A% 30.01 in 10.0 mi Calm Calm - N/A   Scattered Clouds
1:23 AM 75.2 °F - 71.6 °F 89% 30.01 in 10.0 mi Calm Calm - N/A   Mostly Cloudy
1:45 AM 75.2 °F - 71.6 °F 89% 30.00 in 10.0 mi Calm Calm - N/A   Scattered Clouds
1:57 AM 75.2 °F - 72.0 °F 90% 29.99 in 10.0 mi Calm Calm - N/A   Partly Cloudy
2:35 AM 75.2 °F - 69.8 °F 83% 29.99 in 10.0 mi SSW 3.5 mph - N/A   Mostly Cloudy
2:57 AM 73.4 °F - 69.1 °F 86% 29.98 in 10.0 mi Calm Calm - N/A   Overcast
3:12 AM 73.4 °F - 69.8 °F 88% 29.99 in 10.0 mi Calm Calm - N/A   Mostly Cloudy
3:57 AM 73.4 °F - 70.0 °F 89% 29.97 in 10.0 mi Calm Calm - N/A   Partly Cloudy
4:29 AM 73.4 °F - 71.6 °F 94% 29.98 in 6.2 mi Calm Calm - N/A   Mostly Cloudy
4:57 AM 73.4 °F - 72.0 °F 95% 29.97 in 10.0 mi ENE 5.8 mph - N/A   Overcast
5:57 AM 75.2 °F - 70.0 °F 84% 29.97 in 10.0 mi Calm Calm - N/A   Overcast
6:42 AM 75.2 °F - 73.4 °F 94% 30.00 in 6.2 mi Calm Calm - N/A   Mostly Cloudy
6:52 AM 75.2 °F - 73.4 °F 94% 30.00 in 6.2 mi Calm Calm - N/A   Overcast
6:57 AM 75.2 °F - 73.0 °F 93% 29.99 in 10.0 mi Calm Calm - N/A   Overcast
7:16 AM 75.2 °F - 73.4 °F 94% 30.01 in 10.0 mi SE 5.8 mph - N/A   Overcast
7:57 AM 75.2 °F - 69.8 °F 83% 30.01 in 10.0 mi SSE 3.5 mph - N/A   Scattered Clouds
8:57 AM 75.2 °F - 69.8 °F 83% 30.01 in 10.0 mi ESE 4.6 mph - N/A   Scattered Clouds
9:57 AM 77.7 °F - 70.0 °F 77% 30.01 in 10.0 mi NE 9.2 mph - N/A   Overcast
10:57 AM 77.9 °F - 70.0 °F 76% 29.98 in 10.0 mi NNE 8.1 mph - N/A   Partly Cloudy
11:57 AM 78.8 °F - 69.1 °F 72% 29.96 in 10.0 mi South 5.8 mph - N/A   Partly Cloudy
12:57 PM 79.7 °F - 68.0 °F 67% 29.93 in 10.0 mi East 10.4 mph 18.4 mph N/A   Overcast
1:57 PM 80.6 °F 83.2 °F 68.0 °F 65% 29.91 in 10.0 mi East 12.7 mph 19.6 mph N/A   Scattered Clouds
2:57 PM 80.6 °F 83.2 °F 68.0 °F 65% 29.90 in 10.0 mi East 11.5 mph 17.3 mph N/A   Scattered Clouds
3:57 PM 79.2 °F - 68.4 °F 69% 29.90 in 10.0 mi East 10.4 mph 16.1 mph N/A   Overcast
4:57 PM 78.8 °F - 68.0 °F 69% 29.90 in 10.0 mi ESE 5.8 mph - N/A   Scattered Clouds
5:57 PM 78.8 °F - 68.0 °F 69% 29.91 in 10.0 mi ESE 6.9 mph - N/A   Scattered Clouds
6:57 PM 75.7 °F - 69.8 °F 82% 29.91 in 10.0 mi SSW 4.6 mph - N/A   Clear
7:57 PM 75.2 °F - 69.8 °F 83% 29.92 in 10.0 mi Calm Calm - N/A   Clear
8:57 PM 74.7 °F - 68.2 °F 80% 29.93 in 10.0 mi Calm Calm - N/A   Clear
9:57 PM 74.5 °F - 66.9 °F 77% 29.94 in 10.0 mi Calm Calm - N/A   Scattered Clouds
10:57 PM 72.9 °F - 66.9 °F 82% 29.95 in 10.0 mi South 3.5 mph - N/A   Mostly Cloudy
11:19 PM 73.4 °F - 66.2 °F 78% 29.95 in 6.2 mi South 3.5 mph - N/A   Mostly Cloudy
11:57 PM 72.9 °F - 66.9 °F 82% 29.94 in 10.0 mi Calm Calm - N/A   Scattered Clouds